Time,TemperatureF,DewpointF,PressureIn,WindDirection,WindDirectionDegrees,WindSpeedMPH,WindSpeedGustMPH,Humidity,HourlyPrecipIn,Conditions,Clouds,dailyrainin,SoftwareType,DateUTC
2013-09-07 00:01:00,59.4,53.9,30.10,ESE,121,0.0,1.0,82,0.00,,,0.00,Wunderground v.1.15,2013-09-07 04:01:00,
2013-09-07 00:02:00,59.3,53.8,30.10,ESE,121,0.0,1.0,82,0.00,,,0.00,Wunderground v.1.15,2013-09-07 04:02:00,
2013-09-07 00:04:00,59.2,53.7,30.10,ESE,121,0.0,1.0,82,0.00,,,0.00,Wunderground v.1.15,2013-09-07 04:04:00,
2013-09-07 00:06:00,59.0,53.5,30.10,ESE,121,0.0,1.0,82,0.00,,,0.00,Wunderground v.1.15,2013-09-07 04:06:00,
2013-09-07 00:09:00,58.8,53.6,30.09,ESE,121,0.0,1.0,83,0.00,,,0.00,Wunderground v.1.15,2013-09-07 04:09:00,
2013-09-07 00:11:00,58.7,53.5,30.09,ESE,121,0.0,1.0,83,0.00,,,0.00,Wunderground v.1.15,2013-09-07 04:11:00,
2013-09-07 00:17:00,58.4,53.6,30.09,ESE,121,0.0,1.0,84,0.00,,,0.00,Wunderground v.1.15,2013-09-07 04:17:00,
2013-09-07 00:23:00,58.0,53.2,30.10,ESE,121,0.0,1.0,84,0.00,,,0.00,Wunderground v.1.15,2013-09-07 04:23:00,
2013-09-07 00:29:00,57.7,53.2,30.10,ESE,121,0.0,1.0,85,0.00,,,0.00,Wunderground v.1.15,2013-09-07 04:29:00,
2013-09-07 00:34:00,57.5,53.3,30.09,ESE,121,0.0,1.0,86,0.00,,,0.00,Wunderground v.1.15,2013-09-07 04:34:00,
2013-09-07 00:40:00,57.2,53.0,30.09,ESE,121,0.0,1.0,86,0.00,,,0.00,Wunderground v.1.15,2013-09-07 04:40:00,
2013-09-07 00:46:00,57.3,53.1,30.09,ESE,121,0.0,1.0,86,0.00,,,0.00,Wunderground v.1.15,2013-09-07 04:46:00,
2013-09-07 00:51:00,57.4,53.2,30.10,ESE,121,0.0,1.0,86,0.00,,,0.00,Wunderground v.1.15,2013-09-07 04:51:00,
2013-09-07 00:57:00,57.4,53.2,30.10,ESE,121,0.0,1.0,86,0.00,,,0.00,Wunderground v.1.15,2013-09-07 04:57:00,
2013-09-07 01:02:00,57.3,53.1,30.10,ESE,121,0.0,1.0,86,0.00,,,0.00,Wunderground v.1.15,2013-09-07 05:02:00,
2013-09-07 01:07:00,57.3,53.1,30.10,ESE,121,0.0,1.0,86,0.00,,,0.00,Wunderground v.1.15,2013-09-07 05:07:00,
2013-09-07 01:13:00,57.2,53.0,30.10,ESE,121,0.0,1.0,86,0.00,,,0.00,Wunderground v.1.15,2013-09-07 05:13:00,
2013-09-07 01:18:00,57.1,53.0,30.09,ESE,121,0.0,1.0,86,0.00,,,0.00,Wunderground v.1.15,2013-09-07 05:18:00,
2013-09-07 01:24:00,57.0,52.9,30.09,ESE,121,0.0,1.0,86,0.00,,,0.00,Wunderground v.1.15,2013-09-07 05:24:00,
2013-09-07 01:30:00,56.9,53.1,30.09,ESE,121,0.0,1.0,87,0.00,,,0.00,Wunderground v.1.15,2013-09-07 05:30:00,
2013-09-07 01:35:00,56.8,53.0,30.09,ESE,121,0.0,1.0,87,0.00,,,0.00,Wunderground v.1.15,2013-09-07 05:35:00,
2013-09-07 01:40:00,56.7,52.9,30.09,ESE,121,0.0,1.0,87,0.00,,,0.00,Wunderground v.1.15,2013-09-07 05:40:00,
2013-09-07 01:45:00,56.5,52.7,30.09,ESE,121,0.0,1.0,87,0.00,,,0.00,Wunderground v.1.15,2013-09-07 05:45:00,
2013-09-07 01:50:00,56.4,52.6,30.09,ESE,121,0.0,1.0,87,0.00,,,0.00,Wunderground v.1.15,2013-09-07 05:50:00,
2013-09-07 01:56:00,56.2,52.7,30.09,ESE,121,0.0,1.0,88,0.00,,,0.00,Wunderground v.1.15,2013-09-07 05:56:00,
2013-09-07 02:01:00,55.9,52.4,30.09,ESE,121,0.0,1.0,88,0.00,,,0.00,Wunderground v.1.15,2013-09-07 06:01:00,
2013-09-07 02:06:00,55.6,52.1,30.09,ESE,121,0.0,1.0,88,0.00,,,0.00,Wunderground v.1.15,2013-09-07 06:06:00,
2013-09-07 02:11:00,55.3,52.1,30.09,ESE,121,0.0,1.0,89,0.00,,,0.00,Wunderground v.1.15,2013-09-07 06:11:00,
2013-09-07 02:16:00,55.2,52.0,30.09,ESE,121,0.0,1.0,89,0.00,,,0.00,Wunderground v.1.15,2013-09-07 06:16:00,
2013-09-07 02:21:00,55.2,52.3,30.09,ESE,121,0.0,1.0,90,0.00,,,0.00,Wunderground v.1.15,2013-09-07 06:21:00,
2013-09-07 02:27:00,55.2,52.3,30.09,ESE,121,0.0,1.0,90,0.00,,,0.00,Wunderground v.1.15,2013-09-07 06:27:00,
2013-09-07 02:32:00,55.1,52.5,30.09,ESE,121,0.0,1.0,91,0.00,,,0.00,Wunderground v.1.15,2013-09-07 06:32:00,
2013-09-07 02:37:00,55.1,52.2,30.09,ESE,121,0.0,1.0,90,0.00,,,0.00,Wunderground v.1.15,2013-09-07 06:37:00,
2013-09-07 02:43:00,54.9,52.0,30.09,ESE,121,0.0,1.0,90,0.00,,,0.00,Wunderground v.1.15,2013-09-07 06:43:00,
2013-09-07 02:49:00,54.7,51.8,30.09,ESE,121,0.0,1.0,90,0.00,,,0.00,Wunderground v.1.15,2013-09-07 06:49:00,
2013-09-07 02:55:00,54.6,52.0,30.08,ESE,121,0.0,1.0,91,0.00,,,0.00,Wunderground v.1.15,2013-09-07 06:55:00,
2013-09-07 03:01:00,54.5,51.9,30.08,ESE,121,0.0,1.0,91,0.00,,,0.00,Wunderground v.1.15,2013-09-07 07:01:00,
2013-09-07 03:07:00,54.5,51.9,30.08,ESE,121,0.0,1.0,91,0.00,,,0.00,Wunderground v.1.15,2013-09-07 07:07:00,
2013-09-07 03:13:00,54.5,51.9,30.09,ESE,121,0.0,1.0,91,0.00,,,0.00,Wunderground v.1.15,2013-09-07 07:13:00,
2013-09-07 03:19:00,54.3,51.7,30.08,ESE,121,0.0,1.0,91,0.00,,,0.00,Wunderground v.1.15,2013-09-07 07:19:00,
2013-09-07 03:25:00,54.1,51.5,30.08,ESE,121,0.0,1.0,91,0.00,,,0.00,Wunderground v.1.15,2013-09-07 07:25:00,
2013-09-07 03:31:00,54.0,51.4,30.08,ESE,121,0.0,1.0,91,0.00,,,0.00,Wunderground v.1.15,2013-09-07 07:31:00,
2013-09-07 03:37:00,54.0,51.7,30.08,ESE,121,0.0,1.0,92,0.00,,,0.00,Wunderground v.1.15,2013-09-07 07:37:00,
2013-09-07 03:42:00,53.9,51.6,30.08,ESE,121,0.0,1.0,92,0.00,,,0.00,Wunderground v.1.15,2013-09-07 07:42:00,
2013-09-07 03:48:00,53.8,51.2,30.08,ESE,121,0.0,1.0,91,0.00,,,0.00,Wunderground v.1.15,2013-09-07 07:48:00,
2013-09-07 03:54:00,53.6,51.0,30.08,ESE,121,0.0,1.0,91,0.00,,,0.00,Wunderground v.1.15,2013-09-07 07:54:00,
2013-09-07 03:59:00,53.5,51.2,30.08,ESE,121,0.0,1.0,92,0.00,,,0.00,Wunderground v.1.15,2013-09-07 07:59:00,
2013-09-07 04:05:00,53.5,51.2,30.08,ESE,121,0.0,1.0,92,0.00,,,0.00,Wunderground v.1.15,2013-09-07 08:05:00,
2013-09-07 04:10:00,53.5,51.2,30.08,ESE,121,0.0,1.0,92,0.00,,,0.00,Wunderground v.1.15,2013-09-07 08:10:00,
2013-09-07 04:16:00,53.6,51.3,30.08,ESE,121,0.0,1.0,92,0.00,,,0.00,Wunderground v.1.15,2013-09-07 08:16:00,
2013-09-07 04:21:00,53.6,51.3,30.08,ESE,121,0.0,1.0,92,0.00,,,0.00,Wunderground v.1.15,2013-09-07 08:21:00,
2013-09-07 04:27:00,53.6,51.3,30.08,ESE,121,0.0,1.0,92,0.00,,,0.00,Wunderground v.1.15,2013-09-07 08:27:00,
2013-09-07 04:33:00,53.6,51.3,30.08,ESE,121,0.0,1.0,92,0.00,,,0.00,Wunderground v.1.15,2013-09-07 08:33:00,
2013-09-07 04:39:00,53.4,51.1,30.08,ESE,121,0.0,1.0,92,0.00,,,0.00,Wunderground v.1.15,2013-09-07 08:39:00,
2013-09-07 04:44:00,53.4,51.1,30.08,ESE,121,0.0,1.0,92,0.00,,,0.00,Wunderground v.1.15,2013-09-07 08:44:00,
2013-09-07 04:50:00,53.5,51.2,30.08,ESE,121,0.0,1.0,92,0.00,,,0.00,Wunderground v.1.15,2013-09-07 08:50:00,
2013-09-07 04:56:00,53.5,51.2,30.08,ESE,121,0.0,1.0,92,0.00,,,0.00,Wunderground v.1.15,2013-09-07 08:56:00,
2013-09-07 05:02:00,53.5,51.2,30.08,SW,225,0.0,1.0,92,0.00,,,0.00,Wunderground v.1.15,2013-09-07 09:02:00,
2013-09-07 05:07:00,53.5,51.2,30.08,SW,225,1.0,2.0,92,0.00,,,0.00,Wunderground v.1.15,2013-09-07 09:07:00,
2013-09-07 05:12:00,53.5,51.2,30.07,SW,225,1.0,1.0,92,0.00,,,0.00,Wunderground v.1.15,2013-09-07 09:12:00,
2013-09-07 05:18:00,53.5,51.2,30.07,SW,225,0.0,1.0,92,0.00,,,0.00,Wunderground v.1.15,2013-09-07 09:18:00,
2013-09-07 05:24:00,53.4,50.8,30.08,SSW,210,0.0,1.0,91,0.00,,,0.00,Wunderground v.1.15,2013-09-07 09:24:00,
2013-09-07 05:30:00,53.5,50.9,30.08,SSW,210,1.0,1.0,91,0.00,,,0.00,Wunderground v.1.15,2013-09-07 09:30:00,
2013-09-07 05:36:00,53.5,50.9,30.08,SSW,210,1.0,1.0,91,0.00,,,0.00,Wunderground v.1.15,2013-09-07 09:36:00,
2013-09-07 05:42:00,53.4,50.8,30.08,SSW,210,0.0,2.0,91,0.00,,,0.00,Wunderground v.1.15,2013-09-07 09:42:00,
2013-09-07 05:48:00,53.4,50.8,30.08,SSW,210,0.0,2.0,91,0.00,,,0.00,Wunderground v.1.15,2013-09-07 09:48:00,
2013-09-07 05:54:00,53.3,50.7,30.08,SSW,210,0.0,1.0,91,0.00,,,0.00,Wunderground v.1.15,2013-09-07 09:54:00,
2013-09-07 06:00:00,53.3,50.7,30.07,SSW,210,0.0,1.0,91,0.00,,,0.00,Wunderground v.1.15,2013-09-07 10:00:00,
2013-09-07 06:06:00,53.2,50.6,30.07,SSW,210,1.0,2.0,91,0.00,,,0.00,Wunderground v.1.15,2013-09-07 10:06:00,
2013-09-07 06:12:00,53.2,50.6,30.07,SSW,210,1.0,2.0,91,0.00,,,0.00,Wunderground v.1.15,2013-09-07 10:12:00,
2013-09-07 06:18:00,53.2,50.6,30.07,SSW,210,1.0,2.0,91,0.00,,,0.00,Wunderground v.1.15,2013-09-07 10:18:00,
2013-09-07 06:23:00,53.2,50.6,30.07,SSW,210,1.0,1.0,91,0.00,,,0.00,Wunderground v.1.15,2013-09-07 10:23:00,
2013-09-07 06:29:00,53.2,50.6,30.07,SSW,210,0.0,1.0,91,0.00,,,0.00,Wunderground v.1.15,2013-09-07 10:29:00,
2013-09-07 06:35:00,53.0,50.4,30.07,SSW,210,0.0,1.0,91,0.00,,,0.00,Wunderground v.1.15,2013-09-07 10:35:00,
2013-09-07 06:41:00,53.0,50.4,30.07,SSW,210,0.0,1.0,91,0.00,,,0.00,Wunderground v.1.15,2013-09-07 10:41:00,
2013-09-07 06:46:00,52.9,50.3,30.07,SSW,210,0.0,2.0,91,0.00,,,0.00,Wunderground v.1.15,2013-09-07 10:46:00,
2013-09-07 06:52:00,52.8,50.2,30.07,SSW,210,1.0,1.0,91,0.00,,,0.00,Wunderground v.1.15,2013-09-07 10:52:00,
2013-09-07 06:57:00,52.8,50.2,30.07,SSW,210,1.0,1.0,91,0.00,,,0.00,Wunderground v.1.15,2013-09-07 10:57:00,
2013-09-07 07:03:00,52.7,50.4,30.07,SSW,210,0.0,1.0,92,0.00,,,0.00,Wunderground v.1.15,2013-09-07 11:03:00,
2013-09-07 07:09:00,52.7,50.4,30.07,SSW,210,0.0,1.0,92,0.00,,,0.00,Wunderground v.1.15,2013-09-07 11:09:00,
2013-09-07 07:15:00,52.6,50.0,30.07,SSW,210,0.0,1.0,91,0.00,,,0.00,Wunderground v.1.15,2013-09-07 11:15:00,
2013-09-07 07:21:00,52.6,50.3,30.07,SSW,210,0.0,1.0,92,0.00,,,0.00,Wunderground v.1.15,2013-09-07 11:21:00,
2013-09-07 07:27:00,52.6,50.3,30.07,SSW,210,0.0,1.0,92,0.00,,,0.00,Wunderground v.1.15,2013-09-07 11:27:00,
2013-09-07 07:32:00,52.9,50.6,30.07,SSW,210,0.0,1.0,92,0.00,,,0.00,Wunderground v.1.15,2013-09-07 11:32:00,
2013-09-07 07:38:00,53.3,51.0,30.07,SSW,210,0.0,1.0,92,0.00,,,0.00,Wunderground v.1.15,2013-09-07 11:38:00,
2013-09-07 07:44:00,53.7,51.1,30.07,SSW,210,0.0,2.0,91,0.00,,,0.00,Wunderground v.1.15,2013-09-07 11:44:00,
2013-09-07 07:50:00,54.2,51.3,30.06,SSW,210,1.0,1.0,90,0.00,,,0.00,Wunderground v.1.15,2013-09-07 11:50:00,
2013-09-07 07:55:00,54.7,51.5,30.06,SSW,210,1.0,2.0,89,0.00,,,0.00,Wunderground v.1.15,2013-09-07 11:55:00,
2013-09-07 08:01:00,55.1,51.9,30.07,SSW,210,1.0,1.0,89,0.00,,,0.00,Wunderground v.1.15,2013-09-07 12:01:00,
2013-09-07 08:07:00,55.7,52.2,30.06,SSW,210,0.0,1.0,88,0.00,,,0.00,Wunderground v.1.15,2013-09-07 12:07:00,
2013-09-07 08:13:00,56.3,52.5,30.06,SSW,211,1.0,2.0,87,0.00,,,0.00,Wunderground v.1.15,2013-09-07 12:13:00,
2013-09-07 08:19:00,56.8,53.0,30.07,SW,217,1.0,2.0,87,0.00,,,0.00,Wunderground v.1.15,2013-09-07 12:19:00,
2013-09-07 08:25:00,57.5,53.7,30.07,SW,220,1.0,1.0,87,0.00,,,0.00,Wunderground v.1.15,2013-09-07 12:25:00,
2013-09-07 08:30:00,58.4,54.5,30.06,SW,220,0.0,1.0,87,0.00,,,0.00,Wunderground v.1.15,2013-09-07 12:30:00,
2013-09-07 08:36:00,59.8,54.6,30.06,SW,215,0.0,1.0,83,0.00,,,0.00,Wunderground v.1.15,2013-09-07 12:36:00,
2013-09-07 08:42:00,60.9,55.0,30.06,SW,215,1.0,1.0,81,0.00,,,0.00,Wunderground v.1.15,2013-09-07 12:42:00,
2013-09-07 08:47:00,61.7,55.1,30.06,SSW,203,1.0,1.0,79,0.00,,,0.00,Wunderground v.1.15,2013-09-07 12:47:00,
2013-09-07 08:53:00,62.5,55.5,30.06,South,179,1.0,2.0,78,0.00,,,0.00,Wunderground v.1.15,2013-09-07 12:53:00,
2013-09-07 08:59:00,63.0,55.7,30.05,South,179,1.0,2.0,77,0.00,,,0.00,Wunderground v.1.15,2013-09-07 12:59:00,
2013-09-07 09:05:00,63.4,55.3,30.05,South,179,0.0,2.0,75,0.00,,,0.00,Wunderground v.1.15,2013-09-07 13:05:00,
2013-09-07 09:10:00,64.1,55.6,30.05,South,179,0.0,1.0,74,0.00,,,0.00,Wunderground v.1.15,2013-09-07 13:10:00,
2013-09-07 09:16:00,65.0,56.1,30.05,South,177,0.0,3.0,73,0.00,,,0.00,Wunderground v.1.15,2013-09-07 13:16:00,
2013-09-07 09:21:00,65.5,56.6,30.05,South,174,1.0,1.0,73,0.00,,,0.00,Wunderground v.1.15,2013-09-07 13:21:00,
2013-09-07 09:27:00,65.7,56.0,30.05,SE,146,1.0,2.0,71,0.00,,,0.00,Wunderground v.1.15,2013-09-07 13:27:00,
2013-09-07 09:33:00,65.9,56.6,30.05,SSE,147,1.0,2.0,72,0.00,,,0.00,Wunderground v.1.15,2013-09-07 13:33:00,
2013-09-07 09:39:00,66.4,56.7,30.05,SSE,147,1.0,2.0,71,0.00,,,0.00,Wunderground v.1.15,2013-09-07 13:39:00,
2013-09-07 09:45:00,67.5,57.0,30.05,South,177,0.0,1.0,69,0.00,,,0.00,Wunderground v.1.15,2013-09-07 13:45:00,
2013-09-07 09:50:00,68.3,57.3,30.05,South,177,0.0,1.0,68,0.00,,,0.00,Wunderground v.1.15,2013-09-07 13:50:00,
2013-09-07 09:56:00,69.2,57.4,30.05,WSW,247,0.0,4.0,66,0.00,,,0.00,Wunderground v.1.15,2013-09-07 13:56:00,
2013-09-07 10:01:00,69.0,57.2,30.05,WSW,247,1.0,1.0,66,0.00,,,0.00,Wunderground v.1.15,2013-09-07 14:01:00,
2013-09-07 10:07:00,69.2,58.2,30.05,WSW,250,0.0,4.0,68,0.00,,,0.00,Wunderground v.1.15,2013-09-07 14:07:00,
2013-09-07 10:13:00,68.7,57.7,30.05,NW,305,2.0,3.0,68,0.00,,,0.00,Wunderground v.1.15,2013-09-07 14:13:00,
2013-09-07 10:19:00,69.0,58.4,30.05,NW,324,2.0,4.0,69,0.00,,,0.00,Wunderground v.1.15,2013-09-07 14:19:00,
2013-09-07 10:25:00,69.3,57.9,30.05,West,268,2.0,4.0,67,0.00,,,0.00,Wunderground v.1.15,2013-09-07 14:25:00,
2013-09-07 10:31:00,69.7,58.7,30.05,SW,234,2.0,2.0,68,0.00,,,0.00,Wunderground v.1.15,2013-09-07 14:31:00,
2013-09-07 10:36:00,70.3,57.1,30.05,WSW,240,2.0,3.0,63,0.00,,,0.00,Wunderground v.1.15,2013-09-07 14:36:00,
2013-09-07 10:42:00,70.6,57.8,30.05,WSW,247,2.0,3.0,64,0.00,,,0.00,Wunderground v.1.15,2013-09-07 14:42:00,
2013-09-07 10:48:00,71.7,58.4,30.05,SW,222,1.0,6.0,63,0.00,,,0.00,Wunderground v.1.15,2013-09-07 14:48:00,
2013-09-07 10:53:00,71.5,58.2,30.05,West,272,2.0,4.0,63,0.00,,,0.00,Wunderground v.1.15,2013-09-07 14:53:00,
2013-09-07 10:59:00,71.5,58.7,30.04,SSW,192,2.0,4.0,64,0.00,,,0.00,Wunderground v.1.15,2013-09-07 14:59:00,
2013-09-07 11:04:00,71.9,58.6,30.04,West,271,2.0,4.0,63,0.00,,,0.00,Wunderground v.1.15,2013-09-07 15:04:00,
2013-09-07 11:10:00,72.5,59.2,30.04,West,264,2.0,5.0,63,0.00,,,0.00,Wunderground v.1.15,2013-09-07 15:10:00,
2013-09-07 11:16:00,72.6,59.7,30.04,WSW,241,3.0,8.0,64,0.00,,,0.00,Wunderground v.1.15,2013-09-07 15:16:00,
2013-09-07 11:21:00,72.9,60.0,30.04,SSW,208,4.0,6.0,64,0.00,,,0.00,Wunderground v.1.15,2013-09-07 15:21:00,
2013-09-07 11:27:00,73.3,59.9,30.04,West,271,4.0,8.0,63,0.00,,,0.00,Wunderground v.1.15,2013-09-07 15:27:00,
2013-09-07 11:33:00,73.0,59.2,30.04,West,259,5.0,11.0,62,0.00,,,0.00,Wunderground v.1.15,2013-09-07 15:33:00,
2013-09-07 11:38:00,73.0,59.7,30.04,WSW,247,6.0,11.0,63,0.00,,,0.00,Wunderground v.1.15,2013-09-07 15:38:00,
2013-09-07 11:44:00,73.3,59.0,30.03,South,191,5.0,9.0,61,0.00,,,0.00,Wunderground v.1.15,2013-09-07 15:44:00,
2013-09-07 11:50:00,73.4,60.0,30.03,SW,226,5.0,5.0,63,0.00,,,0.00,Wunderground v.1.15,2013-09-07 15:50:00,
2013-09-07 11:55:00,74.0,60.2,30.03,SSW,206,4.0,5.0,62,0.00,,,0.00,Wunderground v.1.15,2013-09-07 15:55:00,
2013-09-07 12:01:00,74.1,59.3,30.03,West,275,4.0,7.0,60,0.00,,,0.00,Wunderground v.1.15,2013-09-07 16:01:00,
2013-09-07 12:06:00,74.0,59.7,30.02,NNW,328,4.0,7.0,61,0.00,,,0.00,Wunderground v.1.15,2013-09-07 16:06:00,
2013-09-07 12:12:00,74.2,58.9,30.02,WSW,251,4.0,8.0,59,0.00,,,0.00,Wunderground v.1.15,2013-09-07 16:12:00,
2013-09-07 12:17:00,74.2,58.5,30.02,SW,234,5.0,8.0,58,0.00,,,0.00,Wunderground v.1.15,2013-09-07 16:17:00,
2013-09-07 12:22:00,74.5,58.8,30.02,WSW,238,4.0,5.0,58,0.00,,,0.00,Wunderground v.1.15,2013-09-07 16:22:00,
2013-09-07 12:28:00,74.8,58.5,30.02,West,276,3.0,6.0,57,0.00,,,0.00,Wunderground v.1.15,2013-09-07 16:28:00,
2013-09-07 12:33:00,74.6,57.4,30.01,South,190,4.0,6.0,55,0.00,,,0.00,Wunderground v.1.15,2013-09-07 16:33:00,
2013-09-07 12:38:00,75.0,58.2,30.01,SW,228,4.0,6.0,56,0.00,,,0.00,Wunderground v.1.15,2013-09-07 16:38:00,
2013-09-07 12:44:00,75.2,59.4,30.01,WNW,286,3.0,4.0,58,0.00,,,0.00,Wunderground v.1.15,2013-09-07 16:44:00,
2013-09-07 12:49:00,75.2,57.4,30.01,West,266,3.0,4.0,54,0.00,,,0.00,Wunderground v.1.15,2013-09-07 16:49:00,
2013-09-07 12:54:00,75.5,57.7,30.00,WNW,285,3.0,6.0,54,0.00,,,0.00,Wunderground v.1.15,2013-09-07 16:54:00,
2013-09-07 13:00:00,74.9,57.1,30.00,NW,312,4.0,4.0,54,0.00,,,0.00,Wunderground v.1.15,2013-09-07 17:00:00,
2013-09-07 13:05:00,74.7,56.9,30.00,WNW,297,4.0,5.0,54,0.00,,,0.00,Wunderground v.1.15,2013-09-07 17:05:00,
2013-09-07 13:11:00,75.5,56.1,30.00,NNW,336,2.0,3.0,51,0.00,,,0.00,Wunderground v.1.15,2013-09-07 17:11:00,
2013-09-07 13:16:00,76.2,53.3,30.00,SW,233,2.0,5.0,45,0.00,,,0.00,Wunderground v.1.15,2013-09-07 17:16:00,
2013-09-07 13:21:00,76.3,54.6,30.00,WNW,301,2.0,3.0,47,0.00,,,0.00,Wunderground v.1.15,2013-09-07 17:21:00,
2013-09-07 13:26:00,76.6,53.7,29.99,SSE,151,2.0,4.0,45,0.00,,,0.00,Wunderground v.1.15,2013-09-07 17:26:00,
2013-09-07 13:32:00,77.6,48.5,29.99,South,182,2.0,3.0,36,0.00,,,0.00,Wunderground v.1.15,2013-09-07 17:32:00,
2013-09-07 13:38:00,78.6,52.3,29.99,South,169,2.0,5.0,40,0.00,,,0.00,Wunderground v.1.15,2013-09-07 17:38:00,
2013-09-07 13:43:00,78.2,49.8,29.99,SW,226,3.0,3.0,37,0.00,,,0.00,Wunderground v.1.15,2013-09-07 17:43:00,
2013-09-07 13:49:00,78.7,52.3,29.99,SW,231,1.0,3.0,40,0.00,,,0.00,Wunderground v.1.15,2013-09-07 17:49:00,
2013-09-07 13:54:00,79.3,53.6,29.98,WSW,246,1.0,4.0,41,0.00,,,0.00,Wunderground v.1.15,2013-09-07 17:54:00,
2013-09-07 13:59:00,79.2,54.1,29.98,West,280,2.0,4.0,42,0.00,,,0.00,Wunderground v.1.15,2013-09-07 17:59:00,
2013-09-07 14:04:00,78.9,54.5,29.98,West,277,2.0,3.0,43,0.00,,,0.00,Wunderground v.1.15,2013-09-07 18:04:00,
2013-09-07 14:10:00,78.6,50.9,29.98,SSE,162,2.0,4.0,38,0.00,,,0.00,Wunderground v.1.15,2013-09-07 18:10:00,
2013-09-07 14:16:00,78.3,54.6,29.98,WSW,240,4.0,6.0,44,0.00,,,0.00,Wunderground v.1.15,2013-09-07 18:16:00,
2013-09-07 14:22:00,78.7,55.0,29.97,SW,231,5.0,5.0,44,0.00,,,0.00,Wunderground v.1.15,2013-09-07 18:22:00,
2013-09-07 14:27:00,78.5,58.3,29.97,SSW,204,3.0,6.0,50,0.00,,,0.00,Wunderground v.1.15,2013-09-07 18:27:00,
2013-09-07 14:32:00,78.7,56.8,29.97,SSE,154,2.0,2.0,47,0.00,,,0.00,Wunderground v.1.15,2013-09-07 18:32:00,
2013-09-07 14:37:00,78.4,58.2,29.96,SE,132,3.0,7.0,50,0.00,,,0.00,Wunderground v.1.15,2013-09-07 18:37:00,
2013-09-07 14:43:00,78.0,59.5,29.96,SE,142,4.0,9.0,53,0.00,,,0.00,Wunderground v.1.15,2013-09-07 18:43:00,
2013-09-07 14:49:00,77.8,60.3,29.96,ESE,108,4.0,9.0,55,0.00,,,0.00,Wunderground v.1.15,2013-09-07 18:49:00,
2013-09-07 14:54:00,78.0,62.0,29.96,ESE,106,3.0,8.0,58,0.00,,,0.00,Wunderground v.1.15,2013-09-07 18:54:00,
2013-09-07 14:59:00,77.6,60.2,29.96,SSE,160,4.0,8.0,55,0.00,,,0.00,Wunderground v.1.15,2013-09-07 18:59:00,
2013-09-07 15:04:00,77.5,59.5,29.95,East,101,4.0,6.0,54,0.00,,,0.00,Wunderground v.1.15,2013-09-07 19:04:00,
2013-09-07 15:09:00,77.3,61.4,29.95,SSE,155,4.0,8.0,58,0.00,,,0.00,Wunderground v.1.15,2013-09-07 19:09:00,
2013-09-07 15:15:00,76.8,60.9,29.95,SE,142,5.0,7.0,58,0.00,,,0.00,Wunderground v.1.15,2013-09-07 19:15:00,
2013-09-07 15:20:00,76.9,61.5,29.95,SSE,147,4.0,4.0,59,0.00,,,0.00,Wunderground v.1.15,2013-09-07 19:20:00,
2013-09-07 15:26:00,77.3,61.4,29.95,ESE,110,4.0,7.0,58,0.00,,,0.00,Wunderground v.1.15,2013-09-07 19:26:00,
2013-09-07 15:32:00,76.8,62.3,29.95,SSE,149,6.0,8.0,61,0.00,,,0.00,Wunderground v.1.15,2013-09-07 19:32:00,
2013-09-07 15:38:00,76.6,62.1,29.95,SE,124,6.0,10.0,61,0.00,,,0.00,Wunderground v.1.15,2013-09-07 19:38:00,
2013-09-07 15:44:00,77.2,62.2,29.94,SE,145,6.0,6.0,60,0.00,,,0.00,Wunderground v.1.15,2013-09-07 19:44:00,
2013-09-07 15:50:00,77.2,61.3,29.94,ESE,102,5.0,5.0,58,0.00,,,0.00,Wunderground v.1.15,2013-09-07 19:50:00,
2013-09-07 15:56:00,77.0,62.0,29.94,SSE,164,5.0,8.0,60,0.00,,,0.00,Wunderground v.1.15,2013-09-07 19:56:00,
2013-09-07 16:01:00,77.0,62.5,29.94,ESE,117,5.0,7.0,61,0.00,,,0.00,Wunderground v.1.15,2013-09-07 20:01:00,
2013-09-07 16:06:00,77.2,62.2,29.93,SSE,154,6.0,8.0,60,0.00,,,0.00,Wunderground v.1.15,2013-09-07 20:06:00,
2013-09-07 16:12:00,77.2,62.2,29.93,SSE,152,6.0,6.0,60,0.00,,,0.00,Wunderground v.1.15,2013-09-07 20:12:00,
2013-09-07 16:18:00,76.9,62.4,29.93,South,174,6.0,7.0,61,0.00,,,0.00,Wunderground v.1.15,2013-09-07 20:18:00,
2013-09-07 16:24:00,77.1,63.5,29.93,South,181,5.0,8.0,63,0.00,,,0.00,Wunderground v.1.15,2013-09-07 20:24:00,
2013-09-07 16:30:00,77.1,63.1,29.93,ESE,118,6.0,6.0,62,0.00,,,0.00,Wunderground v.1.15,2013-09-07 20:30:00,
2013-09-07 16:35:00,76.6,63.1,29.93,ESE,109,6.0,8.0,63,0.00,,,0.00,Wunderground v.1.15,2013-09-07 20:35:00,
2013-09-07 16:41:00,76.9,62.9,29.93,SSE,156,6.0,8.0,62,0.00,,,0.00,Wunderground v.1.15,2013-09-07 20:41:00,
2013-09-07 16:47:00,77.2,62.7,29.92,SE,134,6.0,8.0,61,0.00,,,0.00,Wunderground v.1.15,2013-09-07 20:47:00,
2013-09-07 16:53:00,77.2,63.2,29.92,ESE,108,6.0,9.0,62,0.00,,,0.00,Wunderground v.1.15,2013-09-07 20:53:00,
2013-09-07 16:58:00,77.2,63.6,29.92,South,174,5.0,9.0,63,0.00,,,0.00,Wunderground v.1.15,2013-09-07 20:58:00,
2013-09-07 17:03:00,77.2,63.2,29.92,SSE,166,5.0,6.0,62,0.00,,,0.00,Wunderground v.1.15,2013-09-07 21:03:00,
2013-09-07 17:08:00,76.9,62.9,29.92,SE,143,6.0,10.0,62,0.00,,,0.00,Wunderground v.1.15,2013-09-07 21:08:00,
2013-09-07 17:13:00,76.5,63.4,29.92,ESE,108,6.0,11.0,64,0.00,,,0.00,Wunderground v.1.15,2013-09-07 21:13:00,
2013-09-07 17:18:00,76.2,63.6,29.92,ESE,118,7.0,13.0,65,0.00,,,0.00,Wunderground v.1.15,2013-09-07 21:18:00,
2013-09-07 17:23:00,76.4,63.8,29.92,South,169,7.0,7.0,65,0.00,,,0.00,Wunderground v.1.15,2013-09-07 21:23:00,
2013-09-07 17:28:00,76.7,63.6,29.92,SSE,155,5.0,8.0,64,0.00,,,0.00,Wunderground v.1.15,2013-09-07 21:28:00,
2013-09-07 17:33:00,76.7,63.6,29.92,SSE,158,5.0,9.0,64,0.00,,,0.00,Wunderground v.1.15,2013-09-07 21:33:00,
2013-09-07 17:39:00,76.4,63.8,29.92,ESE,108,6.0,9.0,65,0.00,,,0.00,Wunderground v.1.15,2013-09-07 21:39:00,
2013-09-07 17:45:00,76.2,63.6,29.92,ESE,120,7.0,8.0,65,0.00,,,0.00,Wunderground v.1.15,2013-09-07 21:45:00,
2013-09-07 17:50:00,76.1,63.9,29.92,SSE,154,5.0,5.0,66,0.00,,,0.00,Wunderground v.1.15,2013-09-07 21:50:00,
2013-09-07 17:55:00,76.2,63.6,29.92,ESE,119,5.0,7.0,65,0.00,,,0.00,Wunderground v.1.15,2013-09-07 21:55:00,
2013-09-07 18:00:00,76.2,63.6,29.92,SE,124,5.0,5.0,65,0.00,,,0.00,Wunderground v.1.15,2013-09-07 22:00:00,
2013-09-07 18:05:00,76.2,63.6,29.92,SSE,152,5.0,5.0,65,0.00,,,0.00,Wunderground v.1.15,2013-09-07 22:05:00,
2013-09-07 18:10:00,76.0,63.4,29.91,SSE,147,5.0,7.0,65,0.00,,,0.00,Wunderground v.1.15,2013-09-07 22:10:00,
2013-09-07 18:15:00,75.8,63.2,29.91,ESE,118,5.0,7.0,65,0.00,,,0.00,Wunderground v.1.15,2013-09-07 22:15:00,
2013-09-07 18:21:00,75.7,63.1,29.91,SSE,166,5.0,5.0,65,0.00,,,0.00,Wunderground v.1.15,2013-09-07 22:21:00,
2013-09-07 18:27:00,75.5,62.9,29.91,SSE,150,5.0,6.0,65,0.00,,,0.00,Wunderground v.1.15,2013-09-07 22:27:00,
2013-09-07 18:32:00,75.3,63.2,29.91,ESE,123,5.0,6.0,66,0.00,,,0.00,Wunderground v.1.15,2013-09-07 22:32:00,
2013-09-07 18:38:00,75.1,63.0,29.91,SSE,160,5.0,6.0,66,0.00,,,0.00,Wunderground v.1.15,2013-09-07 22:38:00,
2013-09-07 18:44:00,75.0,62.9,29.91,SSE,162,4.0,7.0,66,0.00,,,0.00,Wunderground v.1.15,2013-09-07 22:44:00,
2013-09-07 18:50:00,74.9,62.8,29.91,SE,134,3.0,3.0,66,0.00,,,0.00,Wunderground v.1.15,2013-09-07 22:50:00,
2013-09-07 18:56:00,74.6,62.9,29.91,SSE,166,3.0,6.0,67,0.00,,,0.00,Wunderground v.1.15,2013-09-07 22:56:00,
2013-09-07 19:01:00,74.3,62.6,29.91,ESE,117,4.0,4.0,67,0.00,,,0.00,Wunderground v.1.15,2013-09-07 23:01:00,
2013-09-07 19:06:00,74.1,62.9,29.91,South,173,3.0,4.0,68,0.00,,,0.00,Wunderground v.1.15,2013-09-07 23:06:00,
2013-09-07 19:12:00,73.9,62.7,29.91,SSE,153,2.0,3.0,68,0.00,,,0.00,Wunderground v.1.15,2013-09-07 23:12:00,
2013-09-07 19:17:00,73.6,62.4,29.91,South,174,2.0,3.0,68,0.00,,,0.00,Wunderground v.1.15,2013-09-07 23:17:00,
2013-09-07 19:22:00,73.4,62.6,29.91,SSE,160,3.0,4.0,69,0.00,,,0.00,Wunderground v.1.15,2013-09-07 23:22:00,
2013-09-07 19:28:00,73.1,62.3,29.91,SE,124,2.0,4.0,69,0.00,,,0.00,Wunderground v.1.15,2013-09-07 23:28:00,
2013-09-07 19:34:00,72.9,62.1,29.91,SE,141,2.0,3.0,69,0.00,,,0.00,Wunderground v.1.15,2013-09-07 23:34:00,
2013-09-07 19:40:00,72.7,62.3,29.92,SSE,165,3.0,3.0,70,0.00,,,0.00,Wunderground v.1.15,2013-09-07 23:40:00,
2013-09-07 19:45:00,72.6,62.3,29.92,SE,143,2.0,3.0,70,0.00,,,0.00,Wunderground v.1.15,2013-09-07 23:45:00,
2013-09-07 19:50:00,72.4,62.1,29.92,SSE,158,2.0,2.0,70,0.00,,,0.00,Wunderground v.1.15,2013-09-07 23:50:00,
2013-09-07 19:55:00,72.2,62.3,29.92,SSE,156,2.0,2.0,71,0.00,,,0.00,Wunderground v.1.15,2013-09-07 23:55:00,
2013-09-07 20:01:00,72.1,62.2,29.91,South,177,1.0,4.0,71,0.00,,,0.00,Wunderground v.1.15,2013-09-08 00:01:00,
2013-09-07 20:06:00,72.0,62.1,29.92,SSE,166,2.0,4.0,71,0.00,,,0.00,Wunderground v.1.15,2013-09-08 00:06:00,
2013-09-07 20:12:00,71.9,62.4,29.92,SSE,165,1.0,2.0,72,0.00,,,0.00,Wunderground v.1.15,2013-09-08 00:12:00,
2013-09-07 20:18:00,71.7,62.2,29.91,SSE,166,1.0,2.0,72,0.00,,,0.00,Wunderground v.1.15,2013-09-08 00:18:00,
2013-09-07 20:24:00,71.5,62.0,29.91,SSE,166,0.0,1.0,72,0.00,,,0.00,Wunderground v.1.15,2013-09-08 00:24:00,
2013-09-07 20:29:00,71.2,62.1,29.92,SSE,166,0.0,1.0,73,0.00,,,0.00,Wunderground v.1.15,2013-09-08 00:29:00,
2013-09-07 20:35:00,70.8,62.1,29.92,SSE,166,0.0,1.0,74,0.00,,,0.00,Wunderground v.1.15,2013-09-08 00:35:00,
2013-09-07 20:41:00,70.4,62.1,29.92,SSE,166,0.0,1.0,75,0.00,,,0.00,Wunderground v.1.15,2013-09-08 00:41:00,
2013-09-07 20:47:00,70.1,62.2,29.92,SSE,166,0.0,1.0,76,0.00,,,0.00,Wunderground v.1.15,2013-09-08 00:47:00,
2013-09-07 20:53:00,69.8,61.9,29.92,SSE,166,0.0,1.0,76,0.00,,,0.00,Wunderground v.1.15,2013-09-08 00:53:00,
2013-09-07 20:59:00,69.5,62.0,29.92,SSE,166,0.0,1.0,77,0.00,,,0.00,Wunderground v.1.15,2013-09-08 00:59:00,
2013-09-07 21:05:00,69.1,61.9,29.92,SSE,166,0.0,1.0,78,0.00,,,0.00,Wunderground v.1.15,2013-09-08 01:05:00,
2013-09-07 21:11:00,68.7,61.9,29.92,SSE,166,0.0,1.0,79,0.00,,,0.00,Wunderground v.1.15,2013-09-08 01:11:00,
2013-09-07 21:16:00,68.1,61.7,29.92,SSE,166,0.0,1.0,80,0.00,,,0.00,Wunderground v.1.15,2013-09-08 01:16:00,
2013-09-07 21:21:00,67.7,61.7,29.92,SSE,166,0.0,1.0,81,0.00,,,0.00,Wunderground v.1.15,2013-09-08 01:21:00,
2013-09-07 21:27:00,67.4,61.4,29.92,SSE,166,0.0,1.0,81,0.00,,,0.00,Wunderground v.1.15,2013-09-08 01:27:00,
2013-09-07 21:32:00,67.2,61.2,29.92,SSE,166,0.0,1.0,81,0.00,,,0.00,Wunderground v.1.15,2013-09-08 01:32:00,
2013-09-07 21:37:00,67.0,61.3,29.92,SSE,166,0.0,1.0,82,0.00,,,0.00,Wunderground v.1.15,2013-09-08 01:37:00,
2013-09-07 21:43:00,66.9,61.2,29.92,SSE,166,0.0,1.0,82,0.00,,,0.00,Wunderground v.1.15,2013-09-08 01:43:00,
2013-09-07 21:48:00,66.8,61.5,29.92,SSE,166,0.0,1.0,83,0.00,,,0.00,Wunderground v.1.15,2013-09-08 01:48:00,
2013-09-07 21:53:00,66.6,61.3,29.92,SSE,166,0.0,1.0,83,0.00,,,0.00,Wunderground v.1.15,2013-09-08 01:53:00,
2013-09-07 21:58:00,66.4,61.1,29.92,SSE,166,0.0,1.0,83,0.00,,,0.00,Wunderground v.1.15,2013-09-08 01:58:00,
2013-09-07 22:04:00,66.2,61.2,29.92,SSE,166,0.0,1.0,84,0.00,,,0.00,Wunderground v.1.15,2013-09-08 02:04:00,
2013-09-07 22:10:00,65.9,60.9,29.92,SSE,166,0.0,1.0,84,0.00,,,0.00,Wunderground v.1.15,2013-09-08 02:10:00,
2013-09-07 22:15:00,65.9,61.3,29.92,SSE,166,0.0,1.0,85,0.00,,,0.00,Wunderground v.1.15,2013-09-08 02:15:00,
2013-09-07 22:21:00,65.9,61.3,29.92,SSE,166,0.0,1.0,85,0.00,,,0.00,Wunderground v.1.15,2013-09-08 02:21:00,
2013-09-07 22:26:00,65.8,61.2,29.92,SSE,166,0.0,1.0,85,0.00,,,0.00,Wunderground v.1.15,2013-09-08 02:26:00,
2013-09-07 22:32:00,65.6,61.0,29.92,SSE,166,0.0,1.0,85,0.00,,,0.00,Wunderground v.1.15,2013-09-08 02:32:00,
2013-09-07 22:37:00,65.4,60.8,29.92,SSE,166,0.0,1.0,85,0.00,,,0.00,Wunderground v.1.15,2013-09-08 02:37:00,
2013-09-07 22:42:00,65.3,61.0,29.92,SSE,166,0.0,1.0,86,0.00,,,0.00,Wunderground v.1.15,2013-09-08 02:42:00,
2013-09-07 22:48:00,65.1,60.8,29.92,SW,232,0.0,1.0,86,0.00,,,0.00,Wunderground v.1.15,2013-09-08 02:48:00,
2013-09-07 22:54:00,64.9,60.6,29.92,SW,219,1.0,2.0,86,0.00,,,0.00,Wunderground v.1.15,2013-09-08 02:54:00,
2013-09-07 23:00:00,64.8,60.5,29.92,SW,215,1.0,1.0,86,0.00,,,0.00,Wunderground v.1.15,2013-09-08 03:00:00,
2013-09-07 23:06:00,64.7,60.7,29.92,SSW,209,1.0,1.0,87,0.00,,,0.00,Wunderground v.1.15,2013-09-08 03:06:00,
2013-09-07 23:12:00,64.6,60.6,29.91,SSW,209,1.0,1.0,87,0.00,,,0.00,Wunderground v.1.15,2013-09-08 03:12:00,
2013-09-07 23:18:00,64.5,60.5,29.92,SSW,209,0.0,1.0,87,0.00,,,0.00,Wunderground v.1.15,2013-09-08 03:18:00,
2013-09-07 23:23:00,64.3,60.3,29.91,SSW,209,0.0,1.0,87,0.00,,,0.00,Wunderground v.1.15,2013-09-08 03:23:00,
2013-09-07 23:29:00,64.0,60.4,29.91,SSW,209,0.0,1.0,88,0.00,,,0.00,Wunderground v.1.15,2013-09-08 03:29:00,
2013-09-07 23:35:00,63.7,60.1,29.91,SSW,209,0.0,1.0,88,0.00,,,0.00,Wunderground v.1.15,2013-09-08 03:35:00,
2013-09-07 23:40:00,63.5,59.9,29.91,SSW,209,0.0,1.0,88,0.00,,,0.00,Wunderground v.1.15,2013-09-08 03:40:00,
2013-09-07 23:45:00,63.3,60.0,29.91,SSW,209,0.0,1.0,89,0.00,,,0.00,Wunderground v.1.15,2013-09-08 03:45:00,
2013-09-07 23:51:00,63.2,59.9,29.91,SSW,209,0.0,1.0,89,0.00,,,0.00,Wunderground v.1.15,2013-09-08 03:51:00,
2013-09-07 23:56:00,63.1,59.8,29.91,SSW,209,0.0,1.0,89,0.00,,,0.00,Wunderground v.1.15,2013-09-08 03:56:00,